Bergamo, Italy

3:29 PM CET on December 12, 2017 (GMT +0100)
Orio Al Serio

Weather History for LIME - March, 2013

Change the Weather History Date:

Tuesday, March 19, 2013

  Actual Average Record
Temperature  
Mean Temperature 44 °F -  
Max Temperature 57 °F 58 °F 77 °F (2005)
Min Temperature 30 °F 42 °F 30 °F (2013)
Degree Days  
Heating Degree Days 22    
Moisture  
Dew Point 33 °F    
Average Humidity 68    
Maximum Humidity 100    
Minimum Humidity 33    
Precipitation  
Precipitation 0.00 in 0.11 in - ()
Sea Level Pressure  
Sea Level Pressure 29.54 in    
Wind  
Wind Speed 5 mph ()    
Max Wind Speed 9 mph    
Max Gust Speed -    
Visibility 4.4 miles    
Events      
Averages and records for this station are not official NWS values.
T = Trace of Precipitation, MM = Missing Value Source: Averaged Metar Reports

Daily Weather History Graph

Daily Weather History Graph

Search for Another Location

Airport or City:

Trip Planner

Search our weather history database for the weather conditions in past years. The results will help you decide how hot, cold, wet, or windy it might be!

Date:

Astronomy

Mar. 19, 2013 Rise Set
Actual Time 6:26 AM CET 6:32 PM CET
Civil Twilight 5:56 AM CET 7:02 PM CET
Nautical Twilight 5:21 AM CET 7:36 PM CET
Astronomical Twilight 4:46 AM CET 8:12 PM CET
Moon 10:45 AM CET (3/19) 1:23 AM CET (3/19)
Length of Visible Light 13h 05m
Length of Day
12h 06m
Waxing Crescent, 48% of the Moon is Illuminated
Mar 19
Waxing Crescent
Mar 19
First Quarter
Mar 27
Full
Apr 3
Last Quarter
Apr 10
New

Hourly Weather History & Observations

Time (CET) Temp. Windchill Dew Point Humidity Pressure Visibility Wind Dir Wind Speed Gust Speed Precip Events Conditions
12:20 AM 35.6 °F 29.9 °F 33.8 °F 93% 29.33 in 4.3 mi North 6.9 mph - N/A   Scattered Clouds
12:50 AM 35.6 °F 32.8 °F 33.8 °F 93% 29.36 in 4.3 mi West 3.5 mph - N/A   Scattered Clouds
1:20 AM 35.6 °F 32.8 °F 33.8 °F 93% 29.36 in 4.3 mi NNE 3.5 mph - N/A   Scattered Clouds
1:50 AM 33.8 °F - 32.0 °F 93% 29.39 in 4.3 mi Variable 2.3 mph - N/A   Scattered Clouds
2:20 AM 33.8 °F - 33.8 °F 100% 29.39 in 4.3 mi North 2.3 mph - N/A   Unknown
2:50 AM 33.8 °F 27.7 °F 32.0 °F 93% 29.39 in 4.3 mi North 6.9 mph - N/A   Unknown
3:20 AM 33.8 °F 29.6 °F 32.0 °F 93% 29.39 in 4.3 mi North 4.6 mph - N/A   Unknown
3:50 AM 33.8 °F 30.8 °F 32.0 °F 93% 29.42 in 4.3 mi Variable 3.5 mph - N/A   Unknown
4:20 AM 30.2 °F 23.4 °F 28.4 °F 93% 29.42 in 4.3 mi NNW 6.9 mph - N/A   Unknown
4:50 AM 32.0 °F 27.5 °F 32.0 °F 100% 29.42 in 4.3 mi North 4.6 mph - N/A   Unknown
5:20 AM 35.6 °F 31.7 °F 32.0 °F 87% 29.44 in 5.0 mi North 4.6 mph - N/A   Unknown
5:50 AM 32.0 °F 26.4 °F 30.2 °F 93% 29.44 in - North 5.8 mph - N/A   Clear
6:20 AM 33.8 °F 28.6 °F 32.0 °F 93% 29.44 in - NNE 5.8 mph - N/A   Clear
6:50 AM 35.6 °F - 32.0 °F 87% 29.47 in - Variable 2.3 mph - N/A   Clear
7:20 AM 35.6 °F 29.2 °F 32.0 °F 87% 29.47 in - North 8.1 mph - N/A   Clear
7:50 AM 37.4 °F 34.9 °F 32.0 °F 81% 29.50 in - North 3.5 mph - N/A   Clear
8:20 AM 41.0 °F - 33.8 °F 76% 29.50 in - Variable 1.2 mph - N/A   Clear
8:50 AM 42.8 °F - 33.8 °F 70% 29.53 in - Variable 2.3 mph - N/A   Clear
9:20 AM 42.8 °F 39.3 °F 35.6 °F 76% 29.53 in - West 5.8 mph - N/A   Clear
9:50 AM 46.4 °F - 35.6 °F 66% 29.56 in - Variable 2.3 mph - N/A   Clear
10:20 AM 48.2 °F - 33.8 °F 58% 29.56 in - Variable 3.5 mph - N/A   Clear
10:50 AM 48.2 °F - 33.8 °F 58% 29.56 in - WSW 4.6 mph - N/A   Clear
11:20 AM 50.0 °F - 37.4 °F 62% 29.59 in - Variable 4.6 mph - N/A   Clear
11:50 AM 51.8 °F - 39.2 °F 62% 29.59 in - West 5.8 mph - N/A   Clear
12:20 PM 53.6 °F - 35.6 °F 51% 29.59 in - Variable 3.5 mph - N/A   Clear
12:50 PM 53.6 °F - 35.6 °F 51% 29.59 in - WSW 6.9 mph - N/A   Clear
1:20 PM 55.4 °F - 35.6 °F 47% 29.59 in - SW 5.8 mph - N/A   Clear
1:50 PM 55.4 °F - 35.6 °F 47% 29.59 in - WSW 8.1 mph - N/A   Clear
2:20 PM 55.4 °F - 35.6 °F 47% 29.59 in - SW 8.1 mph - N/A   Clear
2:50 PM 57.2 °F - 35.6 °F 44% 29.59 in - SSW 8.1 mph - N/A   Clear
3:20 PM 57.2 °F - 30.2 °F 36% 29.59 in - SSW 8.1 mph - N/A   Clear
3:50 PM 57.2 °F - 28.4 °F 33% 29.59 in - SSW 8.1 mph - N/A   Clear
4:20 PM 57.2 °F - 28.4 °F 33% 29.59 in - SW 6.9 mph - N/A   Clear
4:50 PM 55.4 °F - 26.6 °F 33% 29.59 in - South 9.2 mph - N/A   Clear
5:20 PM 55.4 °F - 30.2 °F 38% 29.59 in - South 8.1 mph - N/A   Clear
5:50 PM 53.6 °F - 28.4 °F 38% 29.59 in - South 6.9 mph - N/A   Clear
6:20 PM 51.8 °F - 26.6 °F 38% 29.59 in - South 4.6 mph - N/A   Clear
6:50 PM 50.0 °F - 28.4 °F 43% 29.62 in - ESE 3.5 mph - N/A   Clear
7:20 PM 50.0 °F - 30.2 °F 47% 29.62 in - NE 4.6 mph - N/A   Clear
7:50 PM 46.4 °F 42.9 °F 32.0 °F 57% 29.62 in - NE 6.9 mph - N/A   Clear
8:20 PM 42.8 °F 38.6 °F 33.8 °F 70% 29.65 in - NNE 6.9 mph - N/A   Clear
8:50 PM 42.8 °F - 33.8 °F 70% 29.65 in - Variable 2.3 mph - N/A   Clear
9:20 PM 42.8 °F 40.1 °F 33.8 °F 70% 29.65 in - North 4.6 mph - N/A   Clear
9:50 PM 41.0 °F 37.1 °F 32.0 °F 70% 29.68 in - NNE 5.8 mph - N/A   Clear
10:20 PM 41.0 °F 36.4 °F 33.8 °F 76% 29.68 in - NNE 6.9 mph - N/A   Clear
10:50 PM 39.2 °F 34.2 °F 32.0 °F 75% 29.68 in - North 6.9 mph - N/A   Clear
11:20 PM 39.2 °F 33.6 °F 32.0 °F 75% 29.68 in - North 8.1 mph - N/A   Clear
11:50 PM 42.8 °F 37.5 °F 32.0 °F 66% 29.68 in - NNE 9.2 mph - N/A   Clear